| time (UTC) | temp F | wind direction | speed MPH | gust MPH | rain 1hr in | rain 24hr in | rain mn in | humidity % | barometer mb |
| 20260505114704 | 59 | 109 | 0.0 | 0.0 | 0.00 | 0.00 | 0.00 | 66 | 1013.2 |
| 20260505113704 | 58 | 45 | 0.0 | 0.0 | 0.00 | 0.00 | 0.00 | 64 | 1013.2 |
| 20260505113204 | 58 | 80 | 0.0 | 0.0 | 0.00 | 0.00 | 0.00 | 64 | 1013.2 |
| 20260505111704 | 58 | 74 | 0.0 | 0.0 | 0.00 | 0.00 | 0.00 | 66 | 1013.1 |
| 20260505110204 | 57 | 112 | 0.0 | 0.0 | 0.00 | 0.00 | 0.00 | 66 | 1012.8 |
| 20260505101704 | 58 | 146 | 2.0 | 3.0 | 0.00 | 0.00 | 0.00 | 61 | 1012.6 |
| 20260505101204 | 59 | 359 | 2.0 | 3.0 | 0.00 | 0.00 | 0.00 | 61 | 1012.3 |
| 20260505100704 | 59 | 338 | 1.0 | 3.0 | 0.00 | 0.00 | 0.00 | 61 | 1012.3 |
| 20260505100204 | 59 | 70 | 2.0 | 3.0 | 0.00 | 0.00 | 0.00 | 61 | 1012.3 |
| 20260505094704 | 59 | 35 | 2.0 | 5.0 | 0.00 | 0.00 | 0.00 | 60 | 1012.5 |
| 20260505093704 | 60 | 17 | 3.0 | 3.0 | 0.00 | 0.00 | 0.00 | 59 | 1012.6 |
| 20260505093203 | 60 | 73 | 2.0 | 5.0 | 0.00 | 0.00 | 0.00 | 59 | 1012.8 |
| 20260505091704 | 60 | 112 | 2.0 | 5.0 | 0.00 | 0.00 | 0.00 | 59 | 1012.8 |
| 20260505090704 | 60 | 0 | 2.0 | 3.0 | 0.00 | 0.00 | 0.00 | 59 | 1012.7 |
| 20260505090203 | 60 | 101 | 3.0 | 3.0 | 0.00 | 0.00 | 0.00 | 59 | 1012.7 |
| 20260505083204 | 60 | 9 | 2.0 | 3.0 | 0.00 | 0.00 | 0.00 | 59 | 1012.7 |
| 20260505081704 | 61 | 281 | 2.0 | 3.0 | 0.00 | 0.00 | 0.00 | 58 | 1012.5 |
| 20260505080704 | 61 | 59 | 0.0 | 3.0 | 0.00 | 0.00 | 0.00 | 59 | 1012.5 |
| 20260505080204 | 61 | 357 | 2.0 | 3.0 | 0.00 | 0.00 | 0.00 | 59 | 1012.5 |
| 20260505073704 | 61 | 43 | 1.0 | 3.0 | 0.00 | 0.00 | 0.00 | 59 | 1012.3 |
| 20260505073204 | 61 | 150 | 0.0 | 3.0 | 0.00 | 0.00 | 0.00 | 59 | 1012.3 |
| 20260505071704 | 61 | 315 | 2.0 | 5.0 | 0.00 | 0.00 | 0.00 | 59 | 1012.3 |
| 20260505070704 | 61 | 354 | 2.0 | 3.0 | 0.00 | 0.00 | 0.00 | 59 | 1012.3 |
| 20260505070204 | 61 | 312 | 1.0 | 5.0 | 0.00 | 0.00 | 0.00 | 59 | 1012.3 |
| 20260505063704 | 62 | 116 | 1.0 | 3.0 | 0.00 | 0.00 | 0.00 | 58 | 1012.6 |
| 20260505061704 | 63 | 20 | 1.0 | 6.0 | 0.00 | 0.00 | 0.00 | 57 | 1012.7 |
| 20260505060705 | 63 | 324 | 3.0 | 5.0 | 0.00 | 0.00 | 0.00 | 57 | 1012.6 |
| 20260505054704 | 63 | 199 | 2.0 | 5.0 | 0.00 | 0.00 | 0.00 | 57 | 1012.5 |
| 20260505053704 | 63 | 309 | 1.0 | 5.0 | 0.00 | 0.00 | 0.00 | 58 | 1012.4 |
| 20260505053204 | 64 | 325 | 3.0 | 7.0 | 0.00 | 0.00 | 0.00 | 58 | 1012.3 |
| 20260505050204 | 63 | 337 | 0.0 | 3.0 | 0.00 | 0.00 | 0.00 | 60 | 1012.3 |
| 20260505041704 | 64 | 303 | 2.0 | 5.0 | 0.00 | 0.00 | 0.00 | 60 | 1011.8 |
| 20260505041204 | 64 | 51 | 2.0 | 3.0 | 0.00 | 0.00 | 0.00 | 60 | 1011.8 |
| 20260505034704 | 65 | 24 | 2.0 | 3.0 | 0.00 | 0.00 | 0.00 | 59 | 1011.6 |
| 20260505034204 | 65 | 80 | 3.0 | 6.0 | 0.00 | 0.00 | 0.00 | 58 | 1011.6 |
| 20260505033704 | 65 | 89 | 3.0 | 5.0 | 0.00 | 0.00 | 0.00 | 58 | 1011.5 |
| 20260505033204 | 65 | 67 | 5.0 | 7.0 | 0.00 | 0.00 | 0.00 | 58 | 1011.3 |
| 20260505031204 | 65 | 103 | 2.0 | 3.0 | 0.00 | 0.00 | 0.00 | 58 | 1011.6 |
| 20260505030704 | 65 | 28 | 3.0 | 6.0 | 0.00 | 0.00 | 0.00 | 57 | 1011.6 |
| 20260505024704 | 65 | 45 | 3.0 | 5.0 | 0.00 | 0.00 | 0.00 | 58 | 1011.5 |
| 20260505024204 | 65 | 32 | 3.0 | 5.0 | 0.00 | 0.00 | 0.00 | 58 | 1011.5 |
| 20260505023704 | 65 | 59 | 3.0 | 5.0 | 0.00 | 0.00 | 0.00 | 58 | 1011.5 |
| 20260505021204 | 66 | 72 | 2.0 | 6.0 | 0.00 | 0.00 | 0.00 | 58 | 1011.3 |
| 20260505020704 | 66 | 45 | 3.0 | 3.0 | 0.00 | 0.00 | 0.00 | 58 | 1011.3 |
| 20260505014704 | 66 | 55 | 0.0 | 3.0 | 0.00 | 0.00 | 0.00 | 58 | 1011.5 |
| 20260505013704 | 67 | 22 | 2.0 | 2.0 | 0.00 | 0.00 | 0.00 | 57 | 1011.5 |
| 20260505000704 | 73 | 103 | 3.0 | 6.0 | 0.00 | 0.00 | 0.00 | 47 | 1011.0 |
| 20260504234204 | 74 | 76 | 3.0 | 6.0 | 0.00 | 0.00 | 0.00 | 44 | 1010.8 |
| 20260504233204 | 75 | 123 | 4.0 | 7.0 | 0.00 | 0.00 | 0.00 | 43 | 1010.8 |
| 20260504231704 | 76 | 20 | 5.0 | 8.0 | 0.00 | 0.00 | 0.00 | 40 | 1010.8 |
| 20260504231204 | 77 | 22 | 3.0 | 6.0 | 0.00 | 0.00 | 0.00 | 38 | 1010.8 |
| 20260504230704 | 78 | 60 | 2.0 | 8.0 | 0.00 | 0.00 | 0.00 | 34 | 1010.8 |
| 20260504224204 | 80 | 252 | 9.0 | 13.0 | 0.00 | 0.00 | 0.00 | 29 | 1011.1 |
| 20260504223203 | 78 | 319 | 4.0 | 12.0 | 0.00 | 0.00 | 0.00 | 32 | 1011.1 |
| 20260504221204 | 79 | 311 | 8.0 | 13.0 | 0.00 | 0.00 | 0.00 | 31 | 1011.0 |
| 20260504220204 | 79 | 221 | 6.0 | 12.0 | 0.00 | 0.00 | 0.00 | 33 | 1011.0 |
| 20260504214704 | 80 | 271 | 6.0 | 7.0 | 0.00 | 0.00 | 0.00 | 33 | 1011.0 |
| 20260504214203 | 79 | 122 | 3.0 | 12.0 | 0.00 | 0.00 | 0.00 | 33 | 1011.0 |
| 20260504213204 | 79 | 144 | 9.0 | 12.0 | 0.00 | 0.00 | 0.00 | 34 | 1010.8 |
| 20260504211204 | 78 | 84 | 6.0 | 9.0 | 0.00 | 0.00 | 0.00 | 37 | 1011.0 |
| 20260504210704 | 78 | 313 | 6.0 | 9.0 | 0.00 | 0.00 | 0.00 | 38 | 1011.0 |
| 20260504210204 | 79 | 346 | 5.0 | 13.0 | 0.00 | 0.00 | 0.00 | 36 | 1011.0 |
| 20260504203703 | 77 | 203 | 6.0 | 12.0 | 0.00 | 0.00 | 0.00 | 37 | 1011.2 |
| 20260504201704 | 80 | 308 | 4.0 | 8.0 | 0.00 | 0.00 | 0.00 | 35 | 1011.6 |
| 20260504201204 | 79 | 44 | 4.0 | 6.0 | 0.00 | 0.00 | 0.00 | 35 | 1011.6 |
| 20260504200204 | 81 | 248 | 5.0 | 12.0 | 0.00 | 0.00 | 0.00 | 35 | 1011.6 |
| 20260504193704 | 81 | 180 | 2.0 | 9.0 | 0.00 | 0.00 | 0.00 | 39 | 1011.9 |
| 20260504191704 | 79 | 36 | 6.0 | 10.0 | 0.00 | 0.00 | 0.00 | 39 | 1012.2 |
| 20260504184704 | 77 | 278 | 5.0 | 8.0 | 0.00 | 0.00 | 0.00 | 42 | 1012.7 |
| 20260504184204 | 77 | 136 | 6.0 | 9.0 | 0.00 | 0.00 | 0.00 | 42 | 1012.7 |
| 20260504180703 | 77 | 102 | 6.0 | 7.0 | 0.00 | 0.00 | 0.00 | 43 | 1013.2 |
| 20260504180204 | 77 | 67 | 7.0 | 13.0 | 0.00 | 0.00 | 0.00 | 43 | 1013.2 |
| 20260504174704 | 75 | 75 | 6.0 | 8.0 | 0.00 | 0.00 | 0.00 | 43 | 1013.5 |
| 20260504171704 | 75 | 62 | 6.0 | 8.0 | 0.00 | 0.00 | 0.00 | 46 | 1013.8 |
| 20260504171205 | 74 | 162 | 4.0 | 9.0 | 0.00 | 0.00 | 0.00 | 45 | 1014.0 |
| 20260504170704 | 74 | 42 | 5.0 | 7.0 | 0.00 | 0.00 | 0.00 | 44 | 1014.0 |
| 20260504150704 | 67 | 255 | 3.0 | 9.0 | 0.00 | 0.00 | 0.00 | 52 | 1015.3 |
| 20260504140704 | 60 | 101 | 3.0 | 5.0 | 0.00 | 0.00 | 0.00 | 59 | 1016.3 |